Back to Top

Language: 

My Weather Underground Personal Weather Station Historical Data with Graphs...

Delerius Weather Station Historical Data
Daily Summary for June 29, 2017 Units:  Metric    English   Both
« Previous Day
Next Day »
Daily Weekly Monthly Yearly Custom
  High: Low: Average:
Temperature: 15.7 °C 10.3 °C 13 °C
Dew Point: 14.1 °C 9.7 °C 12.1 °C
Humidity: 97 % 88 % 94 %
Wind Speed: 16.1 km/h 0 km/h 8.4 km/h
Wind Gust: 32.2 km/h - -
Wind:- - NW
Pressure: 997.9 hPa 992.4 hPa -
Precipitation: 7.87 mm    
Historical Graphs
 
 
Tabular Data for June 29, 2017
Time Temperature Dew Point Pressure Wind Wind Speed Wind Gust Humidity Rainfall Rate (Hourly) solar Conditions
00:02 10.3 °C 9.7 °C 995.5 hPa NW 11.3 km/h 24.1 km/h 96 % 0.51 mm 0 W/m2
00:07 10.3 °C 9.7 °C 995.1 hPa NW 11.3 km/h 24.1 km/h 96 % 0.51 mm 0 W/m2
00:12 10.3 °C 9.7 °C 995.1 hPa NW 14.5 km/h 30.6 km/h 96 % 0.51 mm 0 W/m2
00:16 10.3 °C 9.7 °C 995.1 hPa NW 12.9 km/h 30.6 km/h 96 % 0.51 mm 0 W/m2
00:21 10.3 °C 9.7 °C 995.1 hPa NW 12.9 km/h 25.7 km/h 96 % 0.51 mm 0 W/m2
00:26 10.3 °C 9.7 °C 995.1 hPa NW 12.9 km/h 25.7 km/h 96 % 0.51 mm 0 W/m2
00:31 10.3 °C 9.7 °C 995.1 hPa NW 12.9 km/h 22.5 km/h 96 % 0.51 mm 0 W/m2
00:36 10.3 °C 9.7 °C 995.1 hPa NW 12.9 km/h 22.5 km/h 96 % 0.51 mm 0 W/m2
00:41 10.3 °C 9.7 °C 994.8 hPa NW 11.3 km/h 22.5 km/h 96 % 0.51 mm 0 W/m2
00:46 10.3 °C 9.7 °C 994.8 hPa NW 11.3 km/h 29 km/h 96 % 0.76 mm 0 W/m2
00:51 10.3 °C 9.7 °C 994.8 hPa NW 11.3 km/h 29 km/h 96 % 0.51 mm 0 W/m2
00:56 10.3 °C 9.7 °C 994.8 hPa NW 11.3 km/h 22.5 km/h 96 % 0.76 mm 0 W/m2
01:01 10.3 °C 9.7 °C 994.8 hPa NW 12.9 km/h 32.2 km/h 96 % 0.76 mm 0 W/m2
01:06 10.4 °C 9.9 °C 994.8 hPa NW 14.5 km/h 32.2 km/h 97 % 0.76 mm 0 W/m2
01:11 10.4 °C 9.9 °C 994.8 hPa NW 16.1 km/h 32.2 km/h 97 % 1.02 mm 0 W/m2
01:16 10.4 °C 9.9 °C 994.8 hPa NW 16.1 km/h 30.6 km/h 97 % 0.76 mm 0 W/m2
01:21 10.4 °C 9.9 °C 994.5 hPa NW 12.9 km/h 29 km/h 97 % 1.02 mm 0 W/m2
01:26 10.4 °C 9.9 °C 994.5 hPa NW 11.3 km/h 25.7 km/h 97 % 1.52 mm 0 W/m2
01:31 10.4 °C 9.9 °C 994.5 hPa NW 12.9 km/h 25.7 km/h 97 % 1.52 mm 0 W/m2
01:36 10.4 °C 9.9 °C 994.5 hPa NW 12.9 km/h 25.7 km/h 97 % 1.52 mm 0 W/m2
01:41 10.4 °C 9.9 °C 994.5 hPa NW 12.9 km/h 22.5 km/h 97 % 1.78 mm 0 W/m2
01:46 10.4 °C 9.9 °C 994.5 hPa NW 12.9 km/h 22.5 km/h 97 % 1.78 mm 0 W/m2
01:51 10.4 °C 9.9 °C 994.1 hPa NW 12.9 km/h 30.6 km/h 97 % 2.03 mm 0 W/m2
01:56 10.4 °C 9.9 °C 994.1 hPa NW 12.9 km/h 30.6 km/h 97 % 2.03 mm 0 W/m2
02:01 10.4 °C 9.9 °C 994.1 hPa NW 11.3 km/h 30.6 km/h 97 % 2.03 mm 0 W/m2
02:06 10.4 °C 9.9 °C 994.1 hPa NW 11.3 km/h 24.1 km/h 97 % 2.29 mm 0 W/m2
02:11 10.5 °C 10.1 °C 994.1 hPa NW 12.9 km/h 25.7 km/h 97 % 2.03 mm 0 W/m2
02:16 10.5 °C 10.1 °C 993.8 hPa NW 12.9 km/h 25.7 km/h 97 % 2.29 mm 0 W/m2
02:21 10.6 °C 10.2 °C 993.8 hPa NW 12.9 km/h 32.2 km/h 97 % 2.03 mm 0 W/m2
02:26 10.6 °C 10.2 °C 993.8 hPa NW 12.9 km/h 32.2 km/h 97 % 1.78 mm 0 W/m2
02:31 10.6 °C 10.2 °C 993.8 hPa NW 14.5 km/h 24.1 km/h 97 % 1.78 mm 0 W/m2
02:36 10.6 °C 10.2 °C 993.8 hPa NW 12.9 km/h 24.1 km/h 97 % 1.52 mm 0 W/m2
02:41 10.7 °C 10.2 °C 993.8 hPa NW 12.9 km/h 24.1 km/h 97 % 1.27 mm 0 W/m2
02:46 10.7 °C 10.2 °C 993.8 hPa NW 11.3 km/h 24.1 km/h 97 % 1.52 mm 0 W/m2
02:51 10.7 °C 10.2 °C 993.8 hPa NW 11.3 km/h 20.9 km/h 97 % 1.27 mm 0 W/m2
02:56 10.7 °C 10.2 °C 993.5 hPa NW 12.9 km/h 25.7 km/h 97 % 1.27 mm 0 W/m2
03:01 10.7 °C 10.2 °C 993.5 hPa WNW 12.9 km/h 25.7 km/h 97 % 1.27 mm 0 W/m2
03:06 10.8 °C 10.3 °C 993.5 hPa NW 12.9 km/h 24.1 km/h 97 % 1.27 mm 0 W/m2
03:11 10.8 °C 10.3 °C 993.5 hPa NW 12.9 km/h 25.7 km/h 97 % 1.02 mm 0 W/m2
03:16 10.8 °C 10.3 °C 993.5 hPa NW 12.9 km/h 29 km/h 97 % 1.27 mm 0 W/m2
03:21 10.8 °C 10.3 °C 993.5 hPa WNW 12.9 km/h 29 km/h 97 % 1.27 mm 0 W/m2
03:26 10.8 °C 10.3 °C 993.5 hPa WNW 12.9 km/h 25.7 km/h 97 % 1.27 mm 0 W/m2
03:31 10.9 °C 10.4 °C 993.5 hPa WNW 12.9 km/h 29 km/h 97 % 1.27 mm 0 W/m2
03:36 10.9 °C 10.4 °C 993.1 hPa NW 12.9 km/h 29 km/h 97 % 1.52 mm 0 W/m2
03:41 10.9 °C 10.4 °C 993.1 hPa WNW 12.9 km/h 24.1 km/h 97 % 1.52 mm 0 W/m2
03:46 10.9 °C 10.4 °C 993.1 hPa WNW 11.3 km/h 24.1 km/h 97 % 1.52 mm 0 W/m2
03:52 10.9 °C 10.4 °C 993.1 hPa NW 11.3 km/h 19.3 km/h 97 % 1.27 mm 0 W/m2
03:57 11 °C 10.6 °C 993.1 hPa NW 12.9 km/h 20.9 km/h 97 % 1.52 mm 0 W/m2
04:02 11 °C 10.6 °C 993.1 hPa NW 11.3 km/h 20.9 km/h 97 % 1.52 mm 0 W/m2
04:07 11.1 °C 10.7 °C 993.1 hPa NW 12.9 km/h 22.5 km/h 97 % 1.52 mm 0 W/m2
04:12 11.1 °C 10.7 °C 993.1 hPa NW 14.5 km/h 25.7 km/h 97 % 1.52 mm 0 W/m2
04:17 11.1 °C 10.7 °C 992.8 hPa NW 12.9 km/h 25.7 km/h 97 % 1.27 mm 0 W/m2
04:22 11.1 °C 10.7 °C 992.8 hPa NW 12.9 km/h 29 km/h 97 % 1.02 mm 0 W/m2
04:27 11.1 °C 10.7 °C 992.8 hPa NW 14.5 km/h 29 km/h 97 % 1.27 mm 0 W/m2
04:32 11.1 °C 10.7 °C 992.8 hPa NW 14.5 km/h 32.2 km/h 97 % 1.02 mm 0 W/m2
04:37 11.1 °C 10.7 °C 992.8 hPa NNW 14.5 km/h 32.2 km/h 97 % 0.76 mm 0 W/m2
04:42 11.1 °C 10.7 °C 992.8 hPa NNW 12.9 km/h 24.1 km/h 97 % 1.02 mm 0 W/m2
04:45 11.1 °C 10.7 °C 992.8 hPa NW 11.3 km/h 22.5 km/h 97 % 0.76 mm 0 W/m2
04:50 11.1 °C 10.7 °C 992.8 hPa NW 11.3 km/h 20.9 km/h 97 % 0.76 mm 0 W/m2
04:55 11.1 °C 10.7 °C 992.8 hPa NW 11.3 km/h 20.9 km/h 97 % 0.51 mm 0 W/m2
05:00 11.1 °C 10.7 °C 992.8 hPa NW 11.3 km/h 19.3 km/h 97 % 0.51 mm 0 W/m2
05:05 11.1 °C 10.7 °C 992.8 hPa NNW 11.3 km/h 24.1 km/h 97 % 0.51 mm 0 W/m2
05:10 11.1 °C 10.7 °C 992.8 hPa NW 11.3 km/h 24.1 km/h 97 % 0.51 mm 0 W/m2
05:15 11.1 °C 10.7 °C 992.8 hPa NW 11.3 km/h 25.7 km/h 97 % 0.51 mm 0 W/m2
05:20 11.1 °C 10.7 °C 992.8 hPa NW 12.9 km/h 25.7 km/h 97 % 0.76 mm 0 W/m2
05:25 11.1 °C 10.7 °C 992.8 hPa NW 11.3 km/h 20.9 km/h 97 % 0.51 mm 0 W/m2
05:30 11.1 °C 10.7 °C 992.8 hPa NW 9.7 km/h 19.3 km/h 97 % 0.51 mm 0 W/m2
05:35 11.1 °C 10.7 °C 992.8 hPa NW 11.3 km/h 25.7 km/h 97 % 0.51 mm 0 W/m2
05:40 11.1 °C 10.7 °C 992.8 hPa NW 12.9 km/h 25.7 km/h 97 % 0.51 mm 0 W/m2
05:45 11.1 °C 10.7 °C 992.8 hPa NW 12.9 km/h 25.7 km/h 97 % 0.51 mm 0 W/m2
05:51 11.1 °C 10.7 °C 992.8 hPa NW 11.3 km/h 25.7 km/h 97 % 0.76 mm 0 W/m2
05:56 11.1 °C 10.7 °C 992.8 hPa NW 11.3 km/h 24.1 km/h 97 % 0.76 mm 0 W/m2
06:01 11.1 °C 10.7 °C 992.8 hPa NW 11.3 km/h 22.5 km/h 97 % 0.76 mm 0 W/m2
06:06 11 °C 10.6 °C 992.8 hPa NW 11.3 km/h 20.9 km/h 97 % 0.76 mm 5 W/m2
06:11 11 °C 10.6 °C 992.8 hPa NW 12.9 km/h 29 km/h 97 % 0.76 mm 7 W/m2
06:16 11 °C 10.6 °C 992.8 hPa NW 12.9 km/h 29 km/h 97 % 0.76 mm 11 W/m2
06:21 11 °C 10.6 °C 992.8 hPa NW 11.3 km/h 22.5 km/h 97 % 0.51 mm 16 W/m2
06:26 10.9 °C 10.4 °C 992.4 hPa NW 12.9 km/h 22.5 km/h 97 % 0.51 mm 23 W/m2
06:31 10.9 °C 10.4 °C 992.8 hPa NW 12.9 km/h 20.9 km/h 97 % 0.51 mm 19 W/m2
06:36 11 °C 10.6 °C 992.4 hPa NW 11.3 km/h 22.5 km/h 97 % 0.51 mm 18 W/m2
06:41 10.9 °C 10.4 °C 992.4 hPa NW 12.9 km/h 22.5 km/h 97 % 0.51 mm 19 W/m2
06:46 11 °C 10.6 °C 992.4 hPa NW 12.9 km/h 20.9 km/h 97 % 0.25 mm 19 W/m2
06:51 10.9 °C 10.4 °C 992.4 hPa NW 12.9 km/h 22.5 km/h 97 % 0.25 mm 18 W/m2
06:56 11 °C 10.6 °C 992.4 hPa NW 11.3 km/h 22.5 km/h 97 % 0.51 mm 19 W/m2
07:01 11 °C 10.6 °C 992.4 hPa NW 11.3 km/h 24.1 km/h 97 % 0.51 mm 18 W/m2
07:06 11 °C 10.6 °C 992.4 hPa NW 12.9 km/h 24.1 km/h 97 % 0.51 mm 16 W/m2
07:11 11 °C 10.6 °C 992.4 hPa NW 11.3 km/h 24.1 km/h 97 % 0.51 mm 14 W/m2
07:16 11 °C 10.6 °C 992.4 hPa NW 11.3 km/h 22.5 km/h 97 % 0.51 mm 12 W/m2
07:21 11 °C 10.6 °C 992.4 hPa NW 12.9 km/h 22.5 km/h 97 % 0.51 mm 12 W/m2
07:26 11.1 °C 10.7 °C 992.4 hPa NW 12.9 km/h 20.9 km/h 97 % 0.51 mm 12 W/m2
07:31 11.1 °C 10.7 °C 992.4 hPa NW 12.9 km/h 20.9 km/h 97 % 0.51 mm 14 W/m2
07:36 11.1 °C 10.7 °C 992.4 hPa NW 11.3 km/h 19.3 km/h 97 % 0.51 mm 14 W/m2
07:41 11.1 °C 10.7 °C 992.4 hPa NW 8 km/h 19.3 km/h 97 % 0.51 mm 14 W/m2
07:46 11.1 °C 10.7 °C 992.4 hPa NW 9.7 km/h 22.5 km/h 97 % 0.51 mm 14 W/m2
07:51 11.2 °C 10.7 °C 992.4 hPa NW 11.3 km/h 22.5 km/h 97 % 0.51 mm 18 W/m2
07:57 11.2 °C 10.7 °C 992.4 hPa NW 11.3 km/h 19.3 km/h 97 % 0.51 mm 21 W/m2
08:02 11.2 °C 10.7 °C 992.4 hPa NW 11.3 km/h 17.7 km/h 97 % 0.51 mm 23 W/m2
08:07 11.2 °C 10.7 °C 992.4 hPa NW 9.7 km/h 19.3 km/h 97 % 0.25 mm 23 W/m2
08:12 11.3 °C 10.8 °C 992.4 hPa NW 8 km/h 19.3 km/h 97 % 0 mm 25 W/m2
08:17 11.3 °C 10.8 °C 992.4 hPa NW 9.7 km/h 22.5 km/h 97 % 0 mm 23 W/m2
08:22 11.3 °C 10.8 °C 992.4 hPa NW 9.7 km/h 22.5 km/h 97 % 0 mm 25 W/m2
08:27 11.4 °C 10.9 °C 992.4 hPa NW 9.7 km/h 19.3 km/h 97 % 0 mm 26 W/m2
08:29 11.4 °C 10.9 °C 992.4 hPa NW 9.7 km/h 19.3 km/h 97 % 0 mm 26 W/m2
08:34 11.4 °C 10.9 °C 992.4 hPa NW 11.3 km/h 19.3 km/h 97 % 0 mm 35 W/m2
08:39 11.5 °C 11.1 °C 992.4 hPa NW 11.3 km/h 19.3 km/h 97 % 0 mm 47 W/m2
08:44 11.6 °C 11.2 °C 992.4 hPa NW 11.3 km/h 25.7 km/h 97 % 0 mm 54 W/m2
08:49 11.6 °C 11.2 °C 992.4 hPa NW 11.3 km/h 25.7 km/h 97 % 0 mm 60 W/m2
08:54 11.7 °C 11.2 °C 992.4 hPa NW 9.7 km/h 22.5 km/h 97 % 0 mm 63 W/m2
08:59 11.7 °C 11.2 °C 992.4 hPa NW 11.3 km/h 20.9 km/h 97 % 0 mm 62 W/m2
09:04 11.7 °C 11.2 °C 992.4 hPa NW 12.9 km/h 22.5 km/h 97 % 0 mm 77 W/m2
09:09 11.8 °C 11.3 °C 992.4 hPa NW 12.9 km/h 22.5 km/h 97 % 0 mm 95 W/m2
09:14 11.9 °C 11.4 °C 992.4 hPa NW 11.3 km/h 20.9 km/h 97 % 0 mm 86 W/m2
09:19 11.9 °C 11.4 °C 992.4 hPa NW 11.3 km/h 24.1 km/h 97 % 0 mm 91 W/m2
09:24 12 °C 11.6 °C 992.4 hPa NW 12.9 km/h 24.1 km/h 97 % 0.25 mm 93 W/m2
09:29 12.1 °C 11.6 °C 992.4 hPa NW 11.3 km/h 24.1 km/h 97 % 0.25 mm 98 W/m2
09:34 12.1 °C 11.6 °C 992.4 hPa NW 11.3 km/h 30.6 km/h 97 % 0.25 mm 88 W/m2
09:39 12.1 °C 11.6 °C 992.4 hPa NW 11.3 km/h 30.6 km/h 97 % 0.51 mm 91 W/m2
09:44 12.2 °C 11.7 °C 992.4 hPa NW 11.3 km/h 19.3 km/h 97 % 0.51 mm 102 W/m2
09:49 12.2 °C 11.7 °C 992.4 hPa NW 11.3 km/h 25.7 km/h 97 % 0.51 mm 95 W/m2
09:54 12.2 °C 11.7 °C 992.4 hPa NW 11.3 km/h 25.7 km/h 97 % 0.51 mm 81 W/m2
09:59 12.2 °C 11.7 °C 992.4 hPa NW 11.3 km/h 22.5 km/h 97 % 0.51 mm 83 W/m2
10:04 12.3 °C 11.8 °C 992.4 hPa NW 9.7 km/h 22.5 km/h 97 % 0.51 mm 76 W/m2
10:09 12.3 °C 11.8 °C 992.8 hPa NW 8 km/h 22.5 km/h 97 % 0.51 mm 72 W/m2
10:14 12.3 °C 11.8 °C 992.8 hPa NW 9.7 km/h 19.3 km/h 97 % 0.51 mm 69 W/m2
10:20 12.3 °C 11.8 °C 992.8 hPa NW 9.7 km/h 19.3 km/h 97 % 0.51 mm 69 W/m2
10:25 12.4 °C 11.9 °C 992.8 hPa NW 9.7 km/h 19.3 km/h 97 % 0.25 mm 70 W/m2
10:30 12.4 °C 11.9 °C 992.8 hPa NW 8 km/h 19.3 km/h 97 % 0.25 mm 56 W/m2
10:35 12.4 °C 11.9 °C 992.8 hPa NW 9.7 km/h 20.9 km/h 97 % 0 mm 46 W/m2
10:40 12.4 °C 11.9 °C 992.8 hPa NW 8 km/h 20.9 km/h 97 % 0 mm 49 W/m2
10:45 12.4 °C 11.9 °C 992.8 hPa NW 6.4 km/h 14.5 km/h 97 % 0 mm 54 W/m2
10:50 12.4 °C 11.9 °C 993.1 hPa NW 6.4 km/h 19.3 km/h 97 % 0 mm 58 W/m2
10:55 12.5 °C 12.1 °C 992.8 hPa NW 6.4 km/h 19.3 km/h 97 % 0 mm 72 W/m2
11:00 12.5 °C 12.1 °C 993.1 hPa NW 6.4 km/h 14.5 km/h 97 % 0 mm 65 W/m2
11:04 12.6 °C 12.1 °C 993.1 hPa NW 6.4 km/h 16.1 km/h 97 % 0 mm 62 W/m2
11:09 12.6 °C 12.1 °C 993.1 hPa NW 6.4 km/h 16.1 km/h 97 % 0 mm 69 W/m2
11:14 12.6 °C 12.1 °C 993.1 hPa NW 6.4 km/h 16.1 km/h 97 % 0 mm 65 W/m2
11:19 12.7 °C 12.2 °C 993.1 hPa NW 6.4 km/h 16.1 km/h 97 % 0 mm 63 W/m2
11:24 12.7 °C 12.2 °C 993.1 hPa NW 8 km/h 14.5 km/h 97 % 0 mm 69 W/m2
11:29 12.7 °C 12.2 °C 993.1 hPa NW 6.4 km/h 16.1 km/h 97 % 0 mm 76 W/m2
11:34 12.8 °C 12.3 °C 993.1 hPa NW 6.4 km/h 16.1 km/h 97 % 0 mm 84 W/m2
11:39 12.8 °C 12.3 °C 993.1 hPa NW 6.4 km/h 11.3 km/h 97 % 0 mm 76 W/m2
11:44 12.9 °C 12.4 °C 993.1 hPa NW 8 km/h 17.7 km/h 97 % 0 mm 72 W/m2
11:49 12.9 °C 12.4 °C 993.1 hPa NW 8 km/h 17.7 km/h 97 % 0 mm 72 W/m2
11:54 12.9 °C 12.4 °C 993.1 hPa NW 8 km/h 12.9 km/h 97 % 0 mm 60 W/m2
11:59 13 °C 12.6 °C 993.5 hPa NW 6.4 km/h 12.9 km/h 97 % 0 mm 58 W/m2
12:04 13.1 °C 12.6 °C 993.5 hPa NW 6.4 km/h 12.9 km/h 97 % 0 mm 63 W/m2
12:09 13.1 °C 12.6 °C 993.5 hPa NW 4.8 km/h 12.9 km/h 97 % 0 mm 62 W/m2
12:10 13.1 °C 12.6 °C 993.5 hPa NW 4.8 km/h 12.9 km/h 97 % 0 mm 62 W/m2
12:15 13.1 °C 12.6 °C 993.5 hPa NW 6.4 km/h 16.1 km/h 97 % 0 mm 67 W/m2
12:20 13.1 °C 12.6 °C 993.5 hPa WNW 6.4 km/h 16.1 km/h 97 % 0 mm 72 W/m2
12:25 13.2 °C 12.7 °C 993.5 hPa NW 4.8 km/h 11.3 km/h 97 % 0 mm 65 W/m2
12:30 13.2 °C 12.7 °C 993.5 hPa NW 4.8 km/h 16.1 km/h 97 % 0 mm 58 W/m2
12:35 13.2 °C 12.7 °C 993.5 hPa NW 6.4 km/h 16.1 km/h 97 % 0 mm 65 W/m2
12:40 13.2 °C 12.7 °C 993.5 hPa NW 8 km/h 14.5 km/h 97 % 0 mm 65 W/m2
12:45 13.3 °C 12.8 °C 993.5 hPa NW 6.4 km/h 14.5 km/h 97 % 0 mm 65 W/m2
12:50 13.3 °C 12.8 °C 993.5 hPa NW 6.4 km/h 16.1 km/h 97 % 0 mm 60 W/m2
12:56 13.3 °C 12.8 °C 993.5 hPa NW 6.4 km/h 16.1 km/h 97 % 0 mm 67 W/m2
13:01 13.4 °C 12.9 °C 993.8 hPa WNW 6.4 km/h 16.1 km/h 97 % 0 mm 63 W/m2
13:06 13.4 °C 12.9 °C 993.8 hPa WNW 6.4 km/h 16.1 km/h 97 % 0 mm 63 W/m2
13:16 13.4 °C 12.9 °C 993.8 hPa WNW 8 km/h 14.5 km/h 97 % 0 mm 70 W/m2
13:21 13.4 °C 12.9 °C 993.8 hPa WNW 9.7 km/h 16.1 km/h 97 % 0 mm 77 W/m2
13:26 13.4 °C 12.9 °C 993.8 hPa WNW 8 km/h 16.1 km/h 97 % 0 mm 79 W/m2
13:31 13.5 °C 12.9 °C 993.8 hPa WNW 8 km/h 16.1 km/h 96 % 0 mm 90 W/m2
13:36 13.5 °C 12.9 °C 993.8 hPa WNW 8 km/h 16.1 km/h 96 % 0 mm 90 W/m2
13:41 13.6 °C 13 °C 994.1 hPa WNW 8 km/h 14.5 km/h 96 % 0 mm 109 W/m2
13:46 13.6 °C 13 °C 993.8 hPa WNW 9.7 km/h 14.5 km/h 96 % 0 mm 132 W/m2
13:51 13.6 °C 13 °C 993.8 hPa WNW 9.7 km/h 17.7 km/h 96 % 0 mm 113 W/m2
13:56 13.7 °C 13.1 °C 994.1 hPa WNW 9.7 km/h 17.7 km/h 96 % 0 mm 127 W/m2
14:01 13.8 °C 13.2 °C 994.1 hPa WNW 9.7 km/h 17.7 km/h 96 % 0 mm 120 W/m2
14:06 13.8 °C 13.2 °C 994.1 hPa WNW 9.7 km/h 17.7 km/h 96 % 0 mm 114 W/m2
14:11 13.8 °C 13.2 °C 994.1 hPa WNW 9.7 km/h 16.1 km/h 96 % 0 mm 111 W/m2
14:16 13.9 °C 13.1 °C 994.1 hPa WNW 9.7 km/h 19.3 km/h 95 % 0 mm 109 W/m2
14:21 13.9 °C 13.1 °C 994.1 hPa WNW 8 km/h 19.3 km/h 95 % 0 mm 105 W/m2
14:26 14 °C 13.2 °C 994.1 hPa WNW 8 km/h 12.9 km/h 95 % 0 mm 125 W/m2
14:29 14 °C 13.2 °C 994.1 hPa NW 8 km/h 12.9 km/h 95 % 0 mm 125 W/m2
14:34 14.1 °C 13.3 °C 994.1 hPa NW 8 km/h 12.9 km/h 95 % 0 mm 127 W/m2
14:39 14.1 °C 13.3 °C 994.1 hPa WNW 9.7 km/h 19.3 km/h 95 % 0 mm 141 W/m2
14:44 14.2 °C 13.2 °C 994.5 hPa WNW 8 km/h 19.3 km/h 94 % 0 mm 134 W/m2
14:49 14.2 °C 13.2 °C 994.5 hPa WNW 9.7 km/h 19.3 km/h 94 % 0 mm 181 W/m2
14:54 14.3 °C 13.3 °C 994.5 hPa WNW 11.3 km/h 19.3 km/h 94 % 0 mm 178 W/m2
14:59 14.4 °C 13.4 °C 994.5 hPa WNW 9.7 km/h 16.1 km/h 94 % 0 mm 186 W/m2
15:04 14.6 °C 13.7 °C 994.1 hPa WNW 9.7 km/h 16.1 km/h 94 % 0 mm 200 W/m2
15:09 14.7 °C 13.6 °C 994.5 hPa WNW 9.7 km/h 16.1 km/h 93 % 0 mm 183 W/m2
15:14 14.8 °C 13.7 °C 994.5 hPa WNW 11.3 km/h 16.1 km/h 93 % 0 mm 144 W/m2
15:19 14.8 °C 13.5 °C 994.5 hPa WNW 11.3 km/h 19.3 km/h 92 % 0 mm 158 W/m2
15:24 14.8 °C 13.5 °C 994.5 hPa WNW 11.3 km/h 19.3 km/h 92 % 0 mm 116 W/m2
15:29 14.8 °C 13.5 °C 994.5 hPa WNW 11.3 km/h 19.3 km/h 92 % 0 mm 118 W/m2
15:34 14.8 °C 13.5 °C 994.5 hPa WNW 9.7 km/h 19.3 km/h 92 % 0 mm 111 W/m2
15:39 14.8 °C 13.5 °C 994.5 hPa WNW 9.7 km/h 16.1 km/h 92 % 0 mm 111 W/m2
15:44 14.8 °C 13.5 °C 994.5 hPa WNW 8 km/h 12.9 km/h 92 % 0 mm 111 W/m2
15:49 14.9 °C 13.4 °C 994.5 hPa NW 8 km/h 14.5 km/h 91 % 0 mm 123 W/m2
15:54 14.9 °C 13.6 °C 994.5 hPa WNW 8 km/h 14.5 km/h 92 % 0 mm 186 W/m2
16:00 15.1 °C 13.8 °C 994.5 hPa NW 8 km/h 16.1 km/h 92 % 0 mm 167 W/m2
16:05 15.1 °C 13.7 °C 994.5 hPa WNW 9.7 km/h 17.7 km/h 91 % 0 mm 142 W/m2
16:10 15.2 °C 13.7 °C 994.5 hPa WNW 9.7 km/h 17.7 km/h 91 % 0 mm 214 W/m2
16:15 15.3 °C 13.8 °C 994.5 hPa NW 8 km/h 14.5 km/h 91 % 0 mm 214 W/m2
16:20 15.4 °C 13.9 °C 994.5 hPa NW 8 km/h 14.5 km/h 91 % 0 mm 186 W/m2
16:25 15.5 °C 14.1 °C 994.5 hPa NW 6.4 km/h 14.5 km/h 91 % 0 mm 186 W/m2
16:30 15.6 °C 13.9 °C 994.5 hPa NW 6.4 km/h 14.5 km/h 90 % 0 mm 83 W/m2
16:35 15.7 °C 13.9 °C 994.5 hPa NW 6.4 km/h 14.5 km/h 89 % 0 mm 62 W/m2
16:40 15.7 °C 13.9 °C 994.5 hPa NW 6.4 km/h 14.5 km/h 89 % 0 mm 86 W/m2
16:41 15.7 °C 13.9 °C 994.5 hPa NW 6.4 km/h 14.5 km/h 89 % 0 mm 100 W/m2
16:46 15.6 °C 13.8 °C 994.5 hPa WNW 8 km/h 14.5 km/h 89 % 0 mm 220 W/m2
16:51 15.7 °C 13.9 °C 994.5 hPa WNW 9.7 km/h 17.7 km/h 89 % 0 mm 148 W/m2
16:56 15.7 °C 13.9 °C 994.5 hPa WNW 9.7 km/h 17.7 km/h 89 % 0 mm 100 W/m2
17:01 15.7 °C 13.7 °C 994.8 hPa WNW 9.7 km/h 16.1 km/h 88 % 0 mm 76 W/m2
17:06 15.7 °C 13.7 °C 994.8 hPa NW 8 km/h 14.5 km/h 88 % 0 mm 65 W/m2
17:11 15.7 °C 13.7 °C 994.8 hPa NW 8 km/h 14.5 km/h 88 % 0 mm 60 W/m2
17:16 15.6 °C 13.6 °C 994.8 hPa NW 8 km/h 14.5 km/h 88 % 0 mm 53 W/m2
17:21 15.6 °C 13.6 °C 994.8 hPa NW 8 km/h 14.5 km/h 88 % 0 mm 42 W/m2
17:26 15.5 °C 13.5 °C 994.8 hPa NW 8 km/h 17.7 km/h 88 % 0 mm 44 W/m2
17:31 15.4 °C 13.4 °C 994.8 hPa NW 6.4 km/h 17.7 km/h 88 % 0 mm 58 W/m2
17:37 15.4 °C 13.6 °C 994.8 hPa NW 4.8 km/h 11.3 km/h 89 % 0 mm 53 W/m2
17:42 15.4 °C 13.6 °C 994.8 hPa NW 4.8 km/h 12.9 km/h 89 % 0 mm 53 W/m2
17:47 15.4 °C 13.6 °C 994.8 hPa NW 4.8 km/h 12.9 km/h 89 % 0 mm 44 W/m2
17:52 15.4 °C 13.6 °C 994.8 hPa NW 4.8 km/h 9.7 km/h 89 % 0 mm 46 W/m2
17:57 15.4 °C 13.6 °C 995.1 hPa WNW 3.2 km/h 9.7 km/h 89 % 0 mm 32 W/m2
18:02 15.4 °C 13.6 °C 995.1 hPa NW 4.8 km/h 9.7 km/h 89 % 0 mm 30 W/m2
18:07 15.4 °C 13.6 °C 995.1 hPa NW 3.2 km/h 9.7 km/h 89 % 0 mm 37 W/m2
18:08 15.3 °C 13.5 °C 995.1 hPa NNW 3.2 km/h 9.7 km/h 89 % 0 mm 37 W/m2
18:13 15.3 °C 13.5 °C 995.1 hPa NW 3.2 km/h 9.7 km/h 89 % 0 mm 49 W/m2
18:18 15.3 °C 13.5 °C 995.1 hPa NW 4.8 km/h 11.3 km/h 89 % 0 mm 40 W/m2
18:23 15.3 °C 13.5 °C 995.1 hPa NW 3.2 km/h 11.3 km/h 89 % 0 mm 49 W/m2
18:28 15.3 °C 13.5 °C 995.1 hPa NW 3.2 km/h 9.7 km/h 89 % 0 mm 72 W/m2
18:33 15.4 °C 13.6 °C 995.5 hPa NW 3.2 km/h 11.3 km/h 89 % 0 mm 109 W/m2
18:38 15.4 °C 13.6 °C 995.5 hPa NW 4.8 km/h 12.9 km/h 89 % 0 mm 84 W/m2
18:43 15.5 °C 13.7 °C 995.5 hPa WNW 4.8 km/h 12.9 km/h 89 % 0 mm 70 W/m2
18:48 15.6 °C 13.6 °C 995.5 hPa NW 3.2 km/h 11.3 km/h 88 % 0 mm 70 W/m2
18:53 15.6 °C 13.6 °C 995.5 hPa NW 6.4 km/h 17.7 km/h 88 % 0 mm 56 W/m2
18:58 15.6 °C 13.6 °C 995.5 hPa WNW 6.4 km/h 17.7 km/h 88 % 0 mm 47 W/m2
19:03 15.6 °C 13.6 °C 995.5 hPa WNW 6.4 km/h 12.9 km/h 88 % 0 mm 37 W/m2
19:08 15.6 °C 13.6 °C 995.5 hPa WNW 4.8 km/h 11.3 km/h 88 % 0 mm 32 W/m2
19:13 15.6 °C 13.6 °C 995.5 hPa WNW 4.8 km/h 11.3 km/h 88 % 0 mm 30 W/m2
19:18 15.6 °C 13.6 °C 995.5 hPa WNW 3.2 km/h 9.7 km/h 88 % 0 mm 28 W/m2
19:24 15.6 °C 13.6 °C 995.8 hPa WNW 3.2 km/h 8 km/h 88 % 0 mm 26 W/m2
19:28 15.6 °C 13.6 °C 995.8 hPa NW 1.6 km/h 8 km/h 88 % 0 mm 30 W/m2
19:33 15.5 °C 13.5 °C 995.8 hPa NW 1.6 km/h 8 km/h 88 % 0 mm 32 W/m2
19:38 15.5 °C 13.7 °C 995.8 hPa NW 1.6 km/h 6.4 km/h 89 % 0 mm 35 W/m2
19:44 15.4 °C 13.6 °C 995.8 hPa NW 3.2 km/h 8 km/h 89 % 0 mm 35 W/m2
19:49 15.4 °C 13.6 °C 995.8 hPa NW 3.2 km/h 8 km/h 89 % 0 mm 33 W/m2
19:54 15.4 °C 13.6 °C 995.8 hPa NW 3.2 km/h 8 km/h 89 % 0 mm 35 W/m2
19:59 15.4 °C 13.6 °C 996.2 hPa NW 3.2 km/h 8 km/h 89 % 0 mm 39 W/m2
20:04 15.4 °C 13.6 °C 996.2 hPa NW 1.6 km/h 6.4 km/h 89 % 0 mm 39 W/m2
20:09 15.4 °C 13.6 °C 996.2 hPa NW 1.6 km/h 6.4 km/h 89 % 0 mm 40 W/m2
20:14 15.4 °C 13.8 °C 996.2 hPa NW 1.6 km/h 4.8 km/h 90 % 0 mm 30 W/m2
20:19 15.4 °C 13.8 °C 996.2 hPa NW 1.6 km/h 4.8 km/h 90 % 0 mm 21 W/m2
20:24 15.4 °C 13.8 °C 996.2 hPa Calm   3.2 km/h 90 % 0 mm 16 W/m2
20:29 15.4 °C 13.6 °C 996.2 hPa Calm   3.2 km/h 89 % 0 mm 14 W/m2
20:34 15.3 °C 13.7 °C 996.2 hPa Calm   1.6 km/h 90 % 0 mm 16 W/m2
20:39 15.3 °C 13.7 °C 996.2 hPa Calm   1.6 km/h 90 % 0 mm 16 W/m2
20:44 15.3 °C 13.7 °C 996.2 hPa Calm   3.2 km/h 90 % 0 mm 16 W/m2
20:49 15.3 °C 13.7 °C 996.5 hPa Calm   3.2 km/h 90 % 0 mm 14 W/m2
20:54 15.3 °C 13.7 °C 996.5 hPa Calm   1.6 km/h 90 % 0 mm 12 W/m2
20:59 15.2 °C 13.6 °C 996.5 hPa Calm   1.6 km/h 90 % 0 mm 11 W/m2
21:04 15.2 °C 13.6 °C 996.5 hPa Calm   1.6 km/h 90 % 0 mm 7 W/m2
21:09 15.2 °C 13.6 °C 996.5 hPa Calm   1.6 km/h 90 % 0 mm 7 W/m2
21:14 15.2 °C 13.6 °C 996.5 hPa Calm     90 % 0 mm 5 W/m2
21:19 15.1 °C 13.7 °C 996.5 hPa Calm   3.2 km/h 91 % 0 mm 0 W/m2
21:24 15.1 °C 13.7 °C 996.8 hPa Calm   3.2 km/h 91 % 0 mm 0 W/m2
21:29 15.1 °C 13.7 °C 996.8 hPa Calm   3.2 km/h 91 % 0 mm 0 W/m2
21:34 15 °C 13.6 °C 996.8 hPa Calm   1.6 km/h 91 % 0 mm 0 W/m2
21:39 14.9 °C 13.4 °C 996.8 hPa Calm   1.6 km/h 91 % 0 mm 0 W/m2
21:45 14.9 °C 13.4 °C 996.8 hPa Calm     91 % 0 mm 0 W/m2
21:50 14.9 °C 13.4 °C 996.8 hPa Calm   1.6 km/h 91 % 0 mm 0 W/m2
21:55 14.8 °C 13.3 °C 996.8 hPa Calm   6.4 km/h 91 % 0 mm 0 W/m2
22:00 14.8 °C 13.3 °C 996.8 hPa Calm   6.4 km/h 91 % 0 mm 0 W/m2
22:05 14.7 °C 13.2 °C 997.2 hPa Calm   3.2 km/h 91 % 0 mm 0 W/m2
22:10 14.7 °C 13.4 °C 997.2 hPa Calm   3.2 km/h 92 % 0 mm 0 W/m2
22:15 14.6 °C 13.3 °C 997.2 hPa Calm   3.2 km/h 92 % 0 mm 0 W/m2
22:20 14.6 °C 13.3 °C 997.2 hPa Calm   1.6 km/h 92 % 0 mm 0 W/m2
22:25 14.6 °C 13.3 °C 997.2 hPa Calm   6.4 km/h 92 % 0 mm 0 W/m2
22:30 14.5 °C 13.2 °C 997.2 hPa West 1.6 km/h 9.7 km/h 92 % 0 mm 0 W/m2
22:35 14.4 °C 13.1 °C 997.2 hPa WNW 4.8 km/h 11.3 km/h 92 % 0 mm 0 W/m2
22:40 14.4 °C 13.1 °C 997.2 hPa WNW 6.4 km/h 11.3 km/h 92 % 0 mm 0 W/m2
22:45 14.3 °C 13 °C 997.5 hPa WNW 6.4 km/h 11.3 km/h 92 % 0 mm 0 W/m2
22:50 14.3 °C 13 °C 997.5 hPa WNW 4.8 km/h 11.3 km/h 92 % 0 mm 0 W/m2
22:55 14.3 °C 13 °C 997.5 hPa WNW 3.2 km/h 8 km/h 92 % 0 mm 0 W/m2
23:00 14.3 °C 13 °C 997.5 hPa WNW 3.2 km/h 8 km/h 92 % 0 mm 0 W/m2
23:05 14.3 °C 13 °C 997.5 hPa WNW 3.2 km/h 8 km/h 92 % 0 mm 0 W/m2
23:10 14.3 °C 13 °C 997.5 hPa WNW 3.2 km/h 8 km/h 92 % 0 mm 0 W/m2
23:16 14.2 °C 12.9 °C 997.5 hPa WNW 4.8 km/h 9.7 km/h 92 % 0 mm 0 W/m2
23:21 14.2 °C 12.9 °C 997.5 hPa WNW 4.8 km/h 11.3 km/h 92 % 0 mm 0 W/m2
23:26 14.2 °C 12.9 °C 997.9 hPa WNW 6.4 km/h 12.9 km/h 92 % 0 mm 0 W/m2
23:31 14.1 °C 12.8 °C 997.9 hPa WNW 6.4 km/h 14.5 km/h 92 % 0 mm 0 W/m2
23:36 14.1 °C 12.8 °C 997.9 hPa WNW 8 km/h 14.5 km/h 92 % 0 mm 0 W/m2
23:41 14.1 °C 12.8 °C 997.9 hPa WNW 8 km/h 14.5 km/h 92 % 0 mm 0 W/m2
23:46 14.1 °C 12.8 °C 997.9 hPa WNW 8 km/h 16.1 km/h 92 % 0 mm 0 W/m2
23:51 14.1 °C 12.8 °C 997.9 hPa WNW 9.7 km/h 16.1 km/h 92 % 0 mm 0 W/m2
23:56 14 °C 12.7 °C 997.9 hPa WNW 9.7 km/h 16.1 km/h 92 % 0 mm 0 W/m2
Delerius-Weather
Compliments of Weather Underground - 2.25 mb

Data updates at regular intervals.